Theta_e
312 312 311 310 310 309 308 308 307 307 306 306 306 305 306 307 306 306 305 304 304 303 303 303 302 302 301 303 301 300 300 300 300 300 300 300 300 300 300 301 301 300 302 301 302 302 302 302 302 302 303 303 304 306 307 309 311 314 317 320 320 322 320 318 316 316 319 318 319 319 321 320 320 320 319 318 317 318 318 317 316 315 315 315 313
313 313 312 311 310 309 308 307 307 306 306 305 306 305 305 305 305 305 304 303 303 303 302 301 301 301 300 300 300 300 299 300 299 299 300 299 298 301 301 300 300 300 300 299 300 302 302 301 301 302 302 302 303 303 304 306 308 309 312 315 318 320 321 319 318 317 316 317 319 320 318 321 319 317 318 317 316 314 318 318 317 316 315 315 315
314 313 312 311 310 309 308 307 306 305 305 305 305 305 305 304 305 304 303 302 302 302 301 300 301 300 300 299 299 299 299 298 298 299 298 298 298 298 300 299 299 300 299 299 300 300 300 301 301 302 303 301 302 302 303 304 305 306 308 311 313 317 321 321 318 316 317 318 319 319 319 319 320 318 318 318 316 315 317 316 316 317 316 316 316
314 313 312 311 310 308 307 307 305 305 305 305 305 305 305 304 305 303 303 302 302 302 300 300 300 299 299 299 298 297 297 298 298 298 298 298 298 298 298 299 299 300 300 299 300 300 300 300 300 301 302 301 301 301 302 303 304 305 306 308 311 313 317 319 321 319 319 318 316 319 318 317 317 317 317 314 313 312 314 314 314 315 314 315 316
314 313 312 310 309 308 307 306 305 305 305 304 304 304 304 304 304 303 302 301 301 300 302 300 298 298 298 297 297 296 297 297 297 297 297 298 298 298 298 298 299 299 300 301 303 302 302 301 301 302 302 301 301 301 302 301 303 303 304 305 307 310 314 317 318 318 316 315 316 317 318 318 319 319 316 313 309 309 309 311 311 311 311 311 313
314 313 311 310 309 308 307 306 305 305 305 304 304 304 304 304 303 302 302 301 299 299 299 299 300 297 297 296 296 297 296 296 297 297 297 297 298 298 298 298 300 301 301 302 302 302 302 302 302 302 302 301 301 302 302 301 301 301 302 304 305 308 311 313 316 316 315 315 315 316 314 316 315 315 315 314 311 306 305 305 306 307 307 306 305
313 311 311 311 309 308 307 306 305 305 305 305 304 304 304 303 303 302 302 300 300 298 297 297 299 296 296 296 296 296 296 296 296 296 296 296 296 297 298 299 300 301 302 302 302 302 302 302 302 302 302 301 301 301 301 301 301 301 302 303 304 306 306 307 309 312 314 315 316 316 314 315 316 315 314 313 312 312 310 305 304 302 303 304 302
313 313 311 310 309 308 307 306 305 305 305 304 304 304 303 301 301 300 301 298 298 297 296 296 297 296 296 296 297 298 296 296 296 296 296 296 296 296 297 298 298 300 301 301 302 302 302 302 302 302 302 302 302 302 302 302 302 301 301 302 302 302 302 303 305 307 309 311 312 313 313 314 312 308 310 309 308 307 309 309 308 302 302 302 304
312 311 311 310 309 307 306 306 305 305 305 304 304 303 302 301 300 299 299 298 299 297 296 296 295 294 294 294 295 296 296 296 296 297 296 295 295 295 295 296 296 296 297 298 299 299 300 300 301 301 303 304 302 301 302 302 302 301 301 301 301 301 301 302 303 304 305 307 308 312 312 312 311 309 305 305 306 309 309 306 306 305 303 301 301
312 311 311 310 308 307 307 307 306 305 304 304 303 302 301 300 299 298 297 296 296 296 295 295 295 294 294 294 294 295 295 296 300 298 297 296 294 294 295 295 295 295 295 295 296 297 298 299 300 302 301 300 299 298 297 297 299 301 302 302 301 300 300 300 300 302 303 303 304 306 308 310 312 309 307 307 309 306 304 304 306 299 299 298 298
312 311 311 310 309 307 307 307 306 305 304 303 301 301 300 300 298 296 296 295 295 297 295 294 293 293 293 293 293 293 294 296 296 294 293 294 295 294 294 294 294 294 294 294 294 295 295 296 297 299 300 299 300 297 296 296 296 296 297 298 300 301 300 300 300 300 300 301 303 304 305 306 310 309 309 309 308 307 306 305 305 298 300 299 301
310 310 311 309 309 309 308 307 306 305 304 302 301 301 299 298 297 295 295 295 295 294 293 293 292 293 293 293 292 293 293 296 294 293 293 293 294 296 294 294 294 293 293 293 294 294 294 294 295 296 297 297 298 298 298 297 296 295 295 295 295 295 296 299 300 300 300 300 300 302 303 304 307 307 307 306 306 305 306 305 303 300 300 300 304
308 308 309 309 309 308 306 306 305 304 303 302 301 300 298 297 295 295 295 294 294 292 291 291 292 292 292 292 292 293 293 294 293 293 293 293 293 294 293 293 293 293 293 293 293 293 294 294 294 295 295 298 299 296 296 297 297 296 296 296 296 295 294 293 294 299 300 300 301 301 302 304 305 307 307 307 306 306 304 303 302 300 303 302 304
307 307 308 308 308 308 307 305 305 303 303 302 301 299 298 297 295 295 294 293 291 291 290 291 291 290 291 292 291 291 292 294 293 293 293 292 292 292 293 293 293 293 293 293 293 293 293 293 293 293 293 294 294 294 295 295 296 297 298 299 300 299 297 295 294 294 296 300 301 301 304 305 305 306 308 307 306 305 303 304 303 301 301 303 300
306 306 307 307 307 307 306 306 304 303 303 301 300 299 298 294 295 294 292 292 292 290 290 289 291 293 290 290 289 291 292 293 292 292 292 292 292 292 292 292 292 292 293 293 293 293 293 294 293 293 293 294 295 295 295 295 295 296 295 296 297 299 300 300 300 301 301 299 299 302 304 305 306 308 310 310 308 308 306 306 305 303 300 298 296
305 305 306 305 306 306 306 305 304 302 302 300 299 298 296 297 294 293 292 290 289 289 288 289 289 288 288 288 288 289 290 291 291 291 291 291 291 293 292 291 291 291 292 292 292 293 293 293 293 293 293 293 294 292 293 294 294 294 294 295 295 296 297 298 298 298 300 301 302 302 303 304 301 306 308 311 310 309 304 301 301 300 299 298 298
304 304 305 305 304 304 303 304 303 302 301 300 298 297 295 293 293 293 292 290 289 289 288 288 289 287 289 289 287 288 289 291 291 291 291 291 291 291 291 291 291 291 291 291 291 292 293 293 293 292 292 292 293 291 291 292 293 293 293 294 295 296 296 298 297 296 295 295 295 294 295 295 295 296 297 299 306 307 304 301 299 299 298 296 297
305 305 305 305 305 304 304 303 302 301 299 299 297 295 294 294 294 293 292 290 289 288 288 287 286 288 288 287 288 289 289 291 291 291 291 291 291 290 290 290 290 290 290 291 291 292 293 296 296 293 292 292 292 291 291 292 292 292 293 293 294 294 295 297 298 298 296 295 295 295 295 295 295 295 296 297 298 303 306 302 302 299 299 299 298
304 305 305 305 305 305 304 303 301 299 298 297 296 295 294 294 293 291 291 289 289 288 291 286 286 284 286 287 294 291 288 290 291 290 291 291 291 290 290 289 289 289 289 289 290 291 291 293 294 294 293 293 291 290 290 291 292 292 292 293 293 293 295 296 296 296 296 296 298 299 300 301 302 300 300 297 297 301 308 308 305 301 300 299 300
305 304 305 305 304 303 303 301 300 299 297 296 296 295 294 293 291 290 289 289 289 287 288 286 285 284 285 287 288 288 288 288 291 290 291 291 291 291 290 288 288 288 289 289 289 290 291 291 292 291 290 290 290 289 290 290 291 292 292 291 291 292 296 297 297 297 297 297 297 299 301 302 303 304 302 301 301 303 307 310 307 304 303 302 301
305 304 303 303 303 303 301 300 299 298 298 297 296 294 292 292 291 289 289 287 287 286 286 285 284 284 285 285 286 287 289 289 290 290 290 290 290 290 288 288 288 288 288 288 288 289 289 289 290 291 290 290 290 290 290 290 290 292 292 292 293 294 295 296 296 295 297 297 296 296 297 298 300 302 303 303 303 304 305 306 309 306 305 303 301
304 303 303 303 303 301 299 298 298 297 295 295 294 294 292 292 292 291 289 288 287 286 284 286 284 283 284 285 286 287 289 292 289 290 290 290 290 290 289 289 289 288 287 287 288 288 288 289 289 290 290 289 289 289 290 290 290 292 292 291 291 291 293 295 296 295 295 296 295 295 295 296 297 299 301 303 305 305 306 307 307 307 306 307 304
303 302 301 301 300 298 297 296 296 297 295 294 293 293 291 291 291 289 288 286 285 283 283 283 284 283 283 284 285 285 286 288 290 289 289 289 289 289 289 289 289 289 287 287 287 288 289 289 290 290 289 289 289 289 289 289 290 290 290 290 290 290 291 294 294 294 294 294 294 293 294 295 295 296 298 300 304 306 306 307 307 307 305 305 304
301 301 299 299 297 296 296 295 296 295 295 294 293 291 290 290 289 289 287 286 284 283 282 282 282 282 283 283 284 284 285 286 288 289 289 289 289 289 288 288 288 288 289 288 288 288 288 289 289 289 289 289 289 289 289 289 289 289 289 289 290 290 292 293 293 293 292 292 292 293 293 294 295 295 297 300 303 306 306 306 306 305 300 299 297
300 299 299 298 296 296 295 295 295 295 295 293 292 290 289 288 287 285 285 284 283 283 283 282 283 283 282 283 283 284 285 285 285 288 288 289 289 289 288 288 288 288 287 288 288 288 288 288 288 288 288 288 288 288 288 288 288 288 289 289 290 292 292 292 293 293 292 291 292 293 293 293 294 296 298 297 296 299 299 298 297 297 298 298 297
298 298 297 296 297 296 295 295 294 293 293 292 291 289 289 288 288 286 284 284 283 284 284 283 283 283 282 282 282 283 285 285 285 286 288 289 289 288 288 288 288 288 288 288 288 288 288 288 288 288 288 288 288 288 287 288 288 288 288 289 290 291 292 292 293 292 292 292 292 292 293 294 294 296 297 296 296 299 298 297 297 295 298 297 296
297 297 296 295 294 294 293 292 291 290 289 289 288 288 287 287 287 287 286 284 283 283 285 285 284 282 282 282 282 283 284 284 284 285 286 287 288 288 288 288 288 288 288 288 288 288 288 288 288 288 288 288 288 288 288 289 288 289 289 290 290 291 291 292 292 293 292 292 292 293 295 296 295 293 294 295 296 297 297 296 296 296 297 297 294
296 295 294 293 292 292 291 289 290 288 288 288 286 285 287 287 287 286 284 284 284 285 284 284 283 283 282 281 282 282 283 284 285 285 286 287 287 288 288 288 287 287 287 287 288 288 288 288 288 288 288 288 288 288 288 288 288 287 288 289 290 290 291 292 292 293 293 294 294 294 294 294 294 295 295 295 296 295 295 295 295 295 294 295 291
294 293 293 292 291 291 291 290 290 288 287 287 285 287 288 287 287 285 284 285 286 286 284 283 283 281 281 282 282 283 283 284 286 288 287 287 287 286 286 286 286 286 287 287 287 287 287 286 286 286 286 286 286 286 287 287 287 288 288 289 290 291 292 291 291 292 293 293 292 292 292 294 294 294 294 293 293 294 294 294 295 295 294 296 292
294 294 293 293 291 290 291 290 289 289 289 289 289 289 288 289 287 287 286 289 288 288 287 284 283 281 281 283 284 283 284 286 288 288 288 288 287 287 287 287 287 287 287 287 287 285 285 285 286 286 286 286 286 286 286 286 286 286 287 288 289 290 291 292 292 292 292 292 293 292 292 292 293 292 293 292 292 292 293 293 294 294 293 291 290
293 293 292 292 291 291 290 289 290 290 289 289 286 286 286 286 289 289 288 288 288 288 288 288 288 287 286 284 286 287 287 287 287 288 288 287 287 287 287 287 287 286 287 286 285 285 285 285 286 286 287 287 287 287 287 287 287 287 287 288 289 289 289 291 292 292 291 291 292 292 292 292 291 291 291 291 290 291 291 291 293 294 293 291 290
293 293 292 290 290 290 291 290 290 289 287 285 284 282 283 285 286 288 288 288 288 288 288 288 288 288 288 288 287 285 287 287 288 288 288 288 287 287 287 286 286 286 286 286 285 285 285 285 285 285 286 287 287 287 287 288 288 288 288 288 289 289 290 290 292 293 292 292 292 291 291 291 291 290 291 290 289 290 290 290 291 291 290 291 290
293 292 291 291 291 290 290 289 289 289 288 286 284 283 283 282 282 281 284 285 287 288 288 288 288 287 288 288 288 287 287 287 288 288 288 287 287 287 287 286 286 286 286 285 284 284 285 285 285 285 286 286 287 288 289 288 288 289 289 289 289 290 291 292 291 293 292 292 292 292 292 291 291 290 289 289 289 290 290 290 290 290 290 288 288
292 292 292 291 290 289 289 289 287 285 284 284 285 284 283 281 281 281 281 283 285 283 286 287 287 287 288 288 287 287 287 287 287 287 287 287 287 287 286 286 286 286 286 285 284 284 284 284 285 285 285 286 286 287 288 288 288 289 289 289 290 290 291 292 292 291 291 292 292 291 291 291 290 290 289 289 290 290 289 289 289 289 289 289 288
292 288 287 289 290 289 288 288 286 286 284 285 284 284 284 282 282 281 281 281 282 282 283 283 284 286 285 285 286 287 287 287 287 287 287 287 287 287 286 285 284 284 285 285 285 284 284 284 284 285 285 285 285 286 286 287 288 288 288 288 288 289 289 289 291 291 292 292 292 291 291 290 290 290 289 289 289 289 289 289 289 289 288 288 288
292 290 289 289 289 290 289 288 286 286 286 285 285 283 282 282 282 281 281 281 281 281 281 280 279 282 286 286 287 287 287 287 287 287 287 287 287 286 283 283 283 283 283 284 284 284 284 284 284 284 285 285 285 285 286 286 286 286 286 287 286 287 288 288 289 290 290 291 290 290 290 289 289 289 289 289 289 289 289 289 289 288 288 288 288
290 290 289 289 289 288 288 288 288 288 286 284 283 283 282 282 281 281 281 281 281 280 280 280 280 283 284 283 286 286 287 287 287 287 287 287 286 286 284 284 283 283 283 283 284 284 284 284 285 285 285 285 285 285 285 286 286 286 286 286 286 286 286 287 287 288 289 289 289 289 289 289 289 289 289 288 288 288 288 288 288 287 288 287 287
291 290 289 290 289 290 290 291 289 286 287 286 284 282 282 281 282 282 281 281 281 280 280 280 282 279 279 283 286 285 285 286 287 286 286 286 285 285 284 284 284 283 283 283 284 284 284 284 285 284 285 285 285 285 285 285 285 285 285 286 286 286 287 287 287 287 287 287 288 288 288 288 288 288 288 288 287 287 287 287 287 287 287 287 287
290 288 287 287 289 292 291 288 287 287 286 285 283 282 281 280 282 282 282 280 279 279 279 279 279 279 279 281 282 285 284 284 283 283 284 284 285 285 284 284 284 283 284 284 284 284 284 284 284 285 285 285 285 285 285 285 285 285 285 286 286 286 286 286 286 287 287 287 287 287 287 287 288 288 288 288 287 287 287 287 287 287 287 286 287
288 287 287 287 288 289 287 286 286 286 285 286 285 283 283 282 283 281 281 279 279 279 278 279 279 280 280 280 282 283 282 282 283 283 284 284 284 284 284 284 283 283 283 283 284 284 284 284 284 284 285 285 285 285 285 285 285 285 285 285 285 285 285 286 286 286 286 286 287 287 287 287 287 287 287 287 287 287 287 287 287 287 287 286 286
289 288 287 288 288 289 288 286 285 286 285 285 284 283 284 282 282 282 280 280 280 280 280 280 281 281 282 283 286 285 281 282 282 283 284 284 284 284 284 284 284 284 284 284 284 284 284 284 284 284 285 285 285 285 285 285 285 285 285 285 285 285 285 285 286 286 286 286 286 286 286 287 287 287 286 286 287 287 286 286 286 286 286 285 285
292 291 290 288 288 288 286 287 287 286 285 284 284 283 282 282 283 282 280 280 282 281 280 280 280 281 283 286 286 286 283 282 283 284 284 284 284 284 284 284 284 284 284 284 284 284 284 284 284 284 284 284 285 285 285 285 285 285 285 285 285 285 285 285 285 285 286 286 286 286 286 286 286 286 286 287 286 286 286 286 285 285 285 285 285
292 290 288 287 288 285 285 286 286 286 285 285 284 284 284 284 284 283 281 280 281 280 280 280 280 280 281 283 283 283 282 282 282 283 284 284 284 284 284 284 285 285 285 285 285 285 285 284 285 285 285 284 285 284 284 284 285 285 285 285 285 285 285 285 285 285 285 285 285 285 285 286 286 286 286 286 286 286 285 285 285 285 285 285 285
289 289 288 288 287 287 286 285 285 285 285 285 285 285 285 284 285 284 284 283 281 280 279 280 280 279 279 280 282 282 281 281 282 283 284 284 284 284 285 285 285 285 285 285 285 285 285 285 285 285 285 285 285 285 285 285 285 285 285 285 285 285 285 285 285 285 285 285 285 285 285 285 286 286 285 285 285 285 285 285 285 285 285 285 285
290 289 288 288 287 287 286 285 285 284 284 285 285 285 284 285 285 284 285 284 284 283 283 281 280 279 280 280 281 281 281 281 282 283 284 284 284 285 285 285 285 285 285 285 285 285 285 285 285 285 285 285 285 285 285 285 285 285 285 285 285 284 284 285 285 285 286 285 285 285 285 285 285 285 285 285 285 285 285 285 285 284 285 285 285
288 288 287 287 287 286 286 285 284 285 284 284 284 283 283 283 284 284 284 284 284 284 283 283 282 281 281 281 281 281 281 280 282 283 283 284 285 285 285 285 285 285 285 285 285 285 285 285 285 285 285 285 285 285 285 285 285 285 285 285 285 285 285 285 286 286 286 286 286 286 285 285 285 285 285 285 286 286 285 285 285 285 285 285 285
288 288 287 287 287 286 286 285 285 284 284 284 283 283 283 283 283 284 284 284 284 284 284 283 283 282 282 282 282 282 282 280 281 283 283 284 285 285 285 285 285 285 285 285 285 285 285 285 285 285 285 285 285 285 285 285 285 285 285 285 285 285 285 286 286 286 286 286 286 286 286 285 285 285 285 285 285 285 285 285 285 285 285 285 285
287 286 286 286 286 286 285 285 284 284 283 283 283 282 282 282 283 283 284 283 283 283 283 283 283 283 283 283 282 283 283 283 283 283 283 284 285 285 285 285 285 285 285 285 285 285 285 285 285 285 285 285 285 285 285 285 285 285 285 285 285 285 285 285 286 286 286 286 286 286 286 286 285 285 285 285 285 285 285 285 285 285 285 285 285
286 286 285 285 285 285 284 284 284 283 283 282 282 282 282 282 282 282 283 282 282 282 282 282 282 283 283 283 283 282 282 283 283 283 283 283 284 285 285 286 285 285 285 285 285 285 285 285 285 285 285 285 285 285 285 285 285 285 285 285 285 285 285 285 285 286 286 286 286 286 286 286 285 285 285 285 285 285 285 285 285 285 285 285 285
285 285 284 284 284 284 284 284 283 282 282 282 282 282 282 282 282 282 282 281 281 281 281 281 281 282 283 283 282 282 282 282 282 283 283 284 284 284 285 285 285 285 285 285 285 285 285 285 285 285 285 285 285 285 285 285 285 285 285 285 284 285 285 285 285 285 285 286 286 286 286 286 285 285 285 285 285 285 285 285 285 285 285 285 284
284 284 284 283 283 283 283 282 282 282 282 283 283 283 283 283 282 282 282 282 281 281 281 281 281 282 282 282 282 282 282 282 282 282 283 283 283 283 284 285 284 285 285 286 285 285 285 285 285 285 285 285 285 285 285 285 285 285 284 284 284 284 284 285 285 284 285 285 286 286 286 285 285 285 285 285 285 285 285 285 285 285 284 284 284
Wind_Speed
11 12 11 11 11 11 10 9 9 8 7 7 8 7 6 7 6 6 5 5 5 5 4 5 4 4 4 4 4 3 3 3 2 2 2 2 2 2 3 3 3 3 3 5 4 5 6 7 7 6 6 7 7 7 7 8 9 8 8 8 8 8 9 9 11 11 11 5 6 5 5 4 3 4 5 5 4 5 5 3 3 6 7 7 9
12 12 10 10 12 11 10 8 9 7 8 7 8 7 6 6 5 5 6 5 5 4 4 4 3 3 3 3 3 3 3 1 0 1 1 1 2 2 2 3 3 4 3 4 4 5 5 7 9 7 5 6 7 8 7 8 8 9 9 8 9 9 7 10 11 10 14 6 6 5 3 5 6 3 6 6 5 3 5 5 5 6 7 7 8
13 11 10 9 10 10 9 9 8 8 9 7 8 7 6 6 5 7 5 4 3 4 4 4 3 3 2 2 2 1 1 1 1 0 0 1 2 2 3 3 3 4 4 4 4 4 5 7 8 7 5 6 7 7 7 8 7 9 10 8 9 10 8 8 8 10 11 11 6 7 6 6 8 6 6 6 5 4 6 6 6 5 5 6 7
11 10 9 9 8 8 9 8 9 9 9 8 8 7 6 6 5 6 5 4 4 3 3 3 3 2 3 2 2 2 3 2 1 2 1 1 2 2 3 3 4 4 5 4 4 4 5 7 7 7 7 8 8 7 6 7 7 8 9 9 8 10 9 8 8 8 9 11 4 8 7 7 6 3 2 2 3 3 2 1 0 3 4 5 6
11 11 10 9 8 9 9 9 9 9 9 7 8 7 7 6 5 5 5 4 4 3 2 3 3 3 3 3 3 3 2 2 1 1 2 2 3 3 3 3 4 5 5 6 6 7 7 8 9 8 8 9 9 8 6 7 7 8 9 9 9 9 9 9 8 7 9 11 9 6 6 6 6 5 5 5 2 2 2 3 3 3 3 2 3
5 10 10 10 9 9 9 8 9 8 8 7 8 7 7 6 5 4 5 5 3 3 4 3 4 3 3 2 1 1 1 1 1 2 2 3 3 4 4 5 5 6 6 7 7 7 7 8 9 9 9 9 9 9 8 8 7 8 9 10 10 9 9 8 7 6 8 10 11 9 5 6 4 4 6 7 7 3 2 1 1 2 3 3 1
4 3 5 7 7 8 8 8 8 7 7 7 6 5 5 5 5 4 3 4 5 4 4 4 2 3 3 3 2 2 1 1 1 1 2 3 3 4 4 5 6 6 6 7 7 7 8 8 9 9 9 9 10 11 10 9 8 8 8 9 9 9 9 8 7 7 7 7 9 9 8 6 7 8 6 7 6 7 8 6 5 1 0 3 3
9 7 6 6 7 7 6 6 7 7 6 6 6 5 4 4 4 4 4 5 5 5 4 3 3 3 3 2 1 1 1 1 1 1 2 2 3 3 3 4 5 6 7 7 7 7 7 8 9 9 9 9 9 10 9 9 7 8 7 7 8 10 10 9 8 7 7 8 7 9 6 6 5 3 1 4 3 3 5 7 10 7 7 5 4
10 9 7 7 5 2 3 3 4 5 5 5 5 5 4 4 4 4 4 5 4 4 3 3 3 1 1 2 2 1 0 0 1 1 2 3 3 4 4 5 6 7 7 8 8 9 9 9 9 9 10 12 13 11 11 10 9 10 9 7 9 9 10 9 9 7 7 7 9 7 6 5 6 5 2 5 9 12 9 5 5 6 4 4 2
12 11 10 10 8 6 5 4 5 5 5 5 5 5 5 4 5 5 4 4 4 3 3 2 2 2 1 1 0 0 1 2 3 5 5 4 4 4 6 6 6 6 7 8 8 8 9 9 10 15 15 15 15 16 18 17 16 13 12 10 9 10 10 10 10 9 7 8 8 8 9 8 6 6 7 7 9 2 4 6 8 3 5 2 1
12 13 12 11 12 10 7 6 6 7 5 5 4 5 5 5 5 4 4 4 4 2 2 2 2 2 2 0 0 2 3 3 7 8 8 10 6 6 6 7 6 7 7 8 9 9 8 8 8 10 13 13 12 14 15 17 17 17 19 19 17 14 12 12 11 9 10 9 8 8 9 9 9 4 7 8 5 7 8 8 8 6 8 9 10
11 12 13 15 16 16 13 10 8 6 6 6 6 6 5 5 4 4 4 3 1 2 1 2 2 1 0 0 2 3 3 6 10 10 11 11 11 8 7 7 7 7 7 8 8 8 9 9 8 7 8 9 11 12 14 16 16 17 18 17 17 18 16 13 12 10 9 9 10 10 9 10 10 5 6 4 6 6 5 4 6 9 9 9 9
10 10 9 8 10 12 12 11 8 8 7 7 6 6 5 4 4 4 4 3 2 2 4 3 1 0 0 2 3 4 4 7 11 12 12 13 13 11 7 7 8 8 8 8 9 9 9 10 9 8 8 13 12 11 11 13 16 17 17 18 19 18 18 19 18 15 11 12 12 13 10 8 10 10 4 5 4 8 6 5 6 7 10 9 10
11 11 11 12 14 15 15 14 13 11 9 8 7 6 6 6 6 5 4 3 4 4 2 1 0 0 1 2 3 4 5 7 11 12 13 13 13 11 7 8 8 9 9 9 9 10 10 10 10 10 8 9 9 10 10 12 13 13 14 12 12 15 17 18 18 20 17 14 13 14 12 7 12 9 6 5 6 9 9 10 8 7 9 10 1
11 11 12 11 11 14 15 15 14 12 10 8 7 6 6 5 6 4 5 6 6 5 4 2 1 1 1 2 2 4 5 10 11 12 13 14 15 12 7 7 8 9 9 9 10 10 10 10 10 10 9 9 9 10 11 12 13 13 14 15 15 13 12 12 12 10 8 7 9 11 11 9 10 10 10 9 11 9 10 13 13 10 4 4 4
2 7 9 9 12 13 13 14 13 11 10 8 7 6 6 7 6 5 5 5 4 4 2 2 1 0 1 1 2 4 6 10 11 11 12 13 15 9 8 9 9 9 10 9 9 9 9 9 9 10 10 11 11 14 14 13 14 15 15 15 15 14 15 13 13 12 11 10 8 8 8 8 10 10 10 10 10 10 6 2 5 6 6 6 8
3 2 8 5 3 4 9 11 10 9 9 9 7 7 6 5 6 6 7 6 5 4 4 3 3 2 0 1 3 4 5 8 11 13 13 14 12 9 9 10 10 10 10 9 9 9 10 10 10 11 11 11 11 13 14 15 14 16 16 15 13 12 14 11 14 19 18 18 18 17 18 20 19 19 19 19 14 10 8 8 9 8 8 9 7
12 13 11 13 12 11 10 10 9 8 7 7 6 5 6 6 7 6 8 7 6 6 5 4 3 2 1 2 3 5 6 9 13 13 13 13 12 10 10 10 11 11 11 10 9 10 11 19 16 12 12 12 13 15 15 14 14 15 15 15 15 14 13 9 9 10 15 17 19 20 18 17 17 18 19 20 20 15 12 15 11 10 13 11 11
4 6 10 12 13 11 11 11 9 9 7 6 7 8 8 7 5 5 6 7 6 6 5 3 3 3 3 2 5 6 7 9 12 13 13 13 12 9 10 10 11 11 11 11 10 10 10 11 16 15 14 14 16 16 16 15 15 14 14 14 15 16 12 8 10 11 8 8 10 10 11 12 9 7 9 16 19 19 16 16 11 13 13 11 11
14 10 8 7 6 9 8 8 7 8 8 8 7 7 5 6 6 6 5 6 6 5 4 4 4 3 2 1 4 5 7 8 10 14 14 14 14 11 9 10 11 12 12 12 12 10 10 10 11 14 17 17 17 18 18 18 16 15 14 15 15 16 8 9 12 10 10 10 10 10 11 8 8 7 6 7 10 15 17 16 14 14 13 13 12
11 13 12 12 10 10 7 7 8 7 8 8 7 6 6 7 6 5 6 4 4 5 4 3 2 2 2 3 4 5 6 8 9 14 15 15 15 13 9 10 11 12 12 12 10 12 10 10 10 12 16 17 17 19 19 20 19 17 15 15 13 12 12 12 11 11 10 10 9 9 9 9 9 9 8 6 8 10 13 14 14 14 15 13 12
16 12 10 9 10 10 8 8 9 8 6 7 6 5 5 6 7 6 5 6 5 4 2 1 1 2 4 4 4 6 8 10 10 12 14 15 15 16 11 10 11 12 12 11 10 11 10 10 9 12 17 19 19 20 21 21 21 17 17 20 21 20 17 14 13 12 12 11 10 10 10 10 10 10 9 7 7 9 11 13 13 13 14 14 14
14 15 13 11 11 9 8 9 8 6 6 6 7 7 5 4 4 4 5 5 4 3 3 2 1 3 5 6 5 7 8 8 12 11 13 15 16 16 17 14 16 15 12 14 12 13 10 12 13 18 19 20 22 23 23 25 22 18 22 21 21 22 20 14 13 13 12 12 12 12 12 10 10 10 10 9 7 8 10 11 13 13 12 12 10
13 12 12 11 10 10 9 8 7 7 8 7 6 4 4 4 4 5 5 5 4 3 3 2 2 4 6 7 7 8 8 8 9 13 13 15 16 17 17 18 18 14 13 12 11 11 10 9 11 17 21 22 23 23 23 22 18 21 22 23 22 21 15 14 13 13 12 12 12 12 11 10 9 10 10 9 8 7 9 10 11 9 4 2 2
16 13 10 8 10 9 8 7 7 7 6 6 5 4 3 3 3 2 4 3 4 4 4 3 4 6 6 7 8 8 8 8 8 10 14 15 16 16 17 18 18 19 16 14 15 14 16 21 23 24 24 25 26 26 23 24 26 25 25 23 22 14 14 13 13 11 11 12 11 11 11 10 10 10 8 6 4 4 3 1 3 5 6 7 6
14 13 12 8 9 8 9 7 6 7 7 5 6 5 5 5 4 3 4 4 4 4 5 4 6 6 7 8 8 8 8 8 8 8 8 11 11 13 16 17 19 20 21 19 23 27 27 27 28 28 27 25 19 16 15 15 20 24 25 25 17 14 13 13 12 12 12 11 10 11 10 8 9 9 7 5 5 7 5 5 7 7 8 8 7
13 12 13 10 8 8 9 7 6 5 5 4 2 3 4 4 4 4 5 5 4 4 6 6 7 6 7 7 7 7 8 8 8 8 7 8 8 10 11 12 16 18 15 13 14 15 17 18 15 17 17 21 22 21 19 18 15 15 14 15 15 14 14 13 12 12 11 11 10 9 8 8 7 4 5 6 7 6 6 7 7 7 8 8 9
12 11 11 9 7 7 7 8 7 5 4 4 4 4 2 3 6 6 6 6 6 8 8 8 8 8 7 6 6 7 8 8 9 9 9 9 9 9 9 10 10 9 10 11 12 14 15 15 17 14 13 13 13 12 12 12 12 12 12 11 12 13 15 17 15 12 11 10 9 8 7 7 8 8 6 7 7 5 5 7 8 8 7 9 8
11 10 8 7 6 5 7 6 5 6 5 5 4 5 7 6 6 4 5 7 8 8 8 9 8 7 6 5 6 8 8 9 10 10 12 14 13 12 10 10 11 11 14 19 17 14 12 12 11 11 11 11 11 10 10 10 10 11 12 12 11 11 12 11 12 12 11 10 10 8 8 7 8 7 7 6 5 6 6 6 6 9 6 7 10
11 9 8 7 6 6 6 5 6 7 7 6 4 1 1 3 4 7 7 11 13 12 10 9 7 5 4 7 6 7 10 11 16 19 17 17 18 18 18 20 19 18 19 23 17 12 10 10 10 10 11 10 10 10 9 9 9 9 10 12 11 11 11 11 11 11 10 11 10 10 10 8 8 8 7 7 5 5 6 9 8 8 10 8 9
9 9 9 8 7 6 7 8 8 7 6 5 3 2 1 2 1 7 8 8 9 14 13 11 7 6 6 6 9 13 16 18 18 18 18 17 18 19 19 20 21 21 21 15 11 9 9 9 10 9 10 10 10 9 9 9 9 9 9 9 10 11 12 11 11 10 11 10 11 10 10 10 9 8 7 8 8 7 5 3 5 8 9 10 10
9 8 8 6 8 8 9 8 7 7 5 4 3 3 3 1 4 8 10 9 9 10 11 9 8 9 11 11 8 9 12 14 17 18 18 18 18 19 19 20 21 21 20 18 10 9 8 8 9 9 9 10 9 9 8 8 8 9 9 9 10 10 12 12 12 11 10 11 11 10 9 9 9 9 9 8 8 8 8 7 7 7 6 7 9
8 7 8 8 9 9 8 7 6 6 6 5 4 4 5 5 3 4 7 6 7 10 11 8 9 10 12 12 13 12 13 16 18 18 17 17 18 18 20 20 19 19 17 10 8 9 9 9 9 9 9 9 9 8 7 7 8 8 8 8 8 9 10 12 11 11 10 10 10 9 9 10 9 9 8 9 9 9 8 9 7 6 9 10 8
9 9 8 9 9 8 8 6 6 5 5 5 6 6 5 5 4 4 4 8 9 6 4 7 12 14 12 11 12 13 16 17 18 18 17 17 18 18 19 15 15 14 9 8 8 9 9 9 9 9 9 9 9 8 7 6 7 7 7 7 7 7 9 8 8 10 9 10 10 9 10 10 10 10 9 9 9 9 9 8 9 10 9 11 11
9 11 14 10 7 7 6 6 5 5 5 6 6 5 5 4 4 3 4 4 5 6 8 7 7 6 7 6 10 13 16 17 18 17 17 16 17 18 17 10 12 11 9 8 8 8 9 10 10 10 9 9 9 8 7 6 5 5 6 5 5 6 6 7 9 10 11 10 10 10 10 10 10 10 10 10 9 8 9 9 8 9 11 10 11
9 7 7 8 8 6 5 5 6 7 7 6 5 5 4 3 3 4 3 3 3 5 6 5 4 5 6 6 9 14 17 18 16 17 15 15 16 15 10 11 10 10 10 9 9 9 8 8 9 9 9 9 8 7 7 6 5 3 1 2 3 4 5 6 7 8 9 10 9 10 10 9 10 9 9 9 11 12 11 11 10 9 11 12 12
8 8 7 7 7 6 5 5 5 6 6 5 4 4 4 3 2 1 1 2 3 4 3 5 5 7 5 4 8 13 16 16 15 14 13 13 14 9 8 9 9 10 9 10 10 9 9 9 9 9 9 9 8 7 6 5 4 3 2 0 1 2 2 2 3 4 7 7 8 9 10 9 9 9 10 10 8 7 7 7 8 10 10 13 13
8 8 7 7 5 6 5 4 5 7 6 5 4 4 3 3 3 2 1 3 3 3 4 4 3 3 4 7 8 7 11 13 14 11 10 11 10 9 9 9 9 9 10 9 9 9 9 9 9 9 8 8 8 7 6 5 5 4 2 1 2 2 4 5 5 6 6 6 7 7 8 8 8 8 9 10 10 10 10 10 10 10 10 12 11
7 10 11 9 6 5 5 4 4 4 4 3 3 2 3 4 4 4 3 3 3 3 3 2 3 3 4 5 7 8 9 10 11 11 11 9 9 9 9 9 9 9 9 9 10 9 9 9 8 8 8 8 7 7 6 5 5 4 3 2 2 3 4 4 5 6 7 7 7 6 7 8 8 8 8 9 10 9 10 10 11 12 13 11 10
7 5 7 8 5 5 4 4 4 3 2 1 0 0 1 4 3 4 3 2 3 3 2 3 3 2 3 3 6 6 8 10 10 10 10 10 10 10 9 9 10 10 10 10 10 9 9 9 8 8 8 8 7 7 6 5 5 4 4 4 3 4 4 4 5 6 7 8 8 7 7 8 8 8 8 8 9 10 11 11 10 10 11 11 11
4 5 5 4 5 5 5 3 3 3 1 2 3 2 1 1 2 3 1 1 1 1 2 2 1 1 1 4 8 8 5 7 9 9 9 9 9 9 9 9 9 9 9 9 9 9 9 9 8 8 8 8 7 7 6 6 6 5 5 4 5 5 5 5 5 6 7 8 9 8 7 8 8 10 10 9 9 10 9 10 10 10 11 11 12
5 5 5 4 4 4 3 2 2 5 6 5 4 4 4 4 3 3 3 1 1 1 2 3 2 0 2 6 8 10 7 6 7 8 8 8 8 8 8 8 8 9 9 9 9 9 9 9 8 8 8 8 8 8 7 7 7 6 5 5 5 5 6 5 5 5 7 8 9 9 9 8 8 9 11 11 10 10 10 10 11 11 11 11 11
4 4 4 3 4 5 6 7 6 7 7 7 5 5 5 6 6 5 4 2 2 2 3 4 3 1 1 4 6 7 6 6 6 8 7 7 8 8 8 8 9 9 9 9 9 9 9 9 8 8 8 8 8 8 8 7 7 6 6 5 5 6 6 6 6 6 6 8 9 9 10 10 10 9 10 10 10 10 10 11 11 12 12 12 12
8 9 8 9 8 8 7 7 8 7 6 6 6 7 7 7 7 6 6 5 5 5 4 4 3 3 2 3 4 5 6 6 7 7 7 7 7 8 8 8 8 8 9 9 9 9 9 9 9 9 9 9 9 9 8 8 8 7 7 6 7 7 6 6 6 6 6 8 9 10 9 10 10 10 10 11 12 12 12 11 11 12 12 12 13
10 9 9 9 8 8 8 7 7 6 5 6 8 7 7 7 7 7 7 7 7 7 7 6 5 3 3 4 5 4 4 4 6 7 7 7 7 7 7 7 8 8 8 9 9 9 9 9 9 9 10 9 9 9 9 8 9 8 7 7 7 7 7 6 6 5 6 8 8 9 10 10 10 10 10 10 11 12 11 11 12 12 12 12 12
9 8 8 8 9 8 7 6 5 7 8 8 7 7 7 7 7 7 6 7 7 7 7 7 7 6 6 6 6 5 5 4 5 6 6 6 6 6 6 7 7 8 8 8 8 9 9 9 9 9 10 9 10 9 9 9 9 9 8 8 8 7 7 7 7 7 7 8 9 9 10 10 10 10 11 10 10 10 11 12 11 11 11 11 11
9 9 9 8 8 7 7 6 6 7 8 8 7 7 7 7 6 6 7 8 7 6 7 6 7 7 7 7 7 7 7 5 4 5 5 6 6 6 6 7 7 7 7 8 8 8 9 9 9 9 10 10 10 10 9 9 9 9 9 8 8 9 8 8 8 8 8 8 9 9 10 11 11 11 12 12 11 11 12 12 12 13 11 10 11
9 9 8 8 8 8 7 6 7 7 8 8 7 7 6 6 6 7 7 7 7 7 7 6 6 6 6 7 7 7 7 7 6 5 5 5 6 6 6 6 6 6 7 7 8 8 8 8 9 9 9 10 10 10 10 9 9 9 9 9 9 9 11 11 9 9 8 9 9 11 12 11 11 11 11 12 12 12 13 12 11 10 10 10 10
8 8 8 8 8 8 7 8 7 7 7 7 7 7 7 7 7 7 7 7 7 7 7 7 6 6 6 6 6 6 7 7 7 7 7 5 5 6 6 6 5 6 6 7 7 8 8 8 8 8 9 9 9 9 9 10 10 9 10 9 13 20 18 16 10 9 11 10 10 10 11 12 13 12 12 13 12 12 11 11 11 10 10 10 10
8 8 8 8 8 8 7 7 7 7 7 6 7 7 6 6 7 7 7 7 7 7 7 7 6 6 6 6 7 7 7 7 7 7 7 7 6 5 5 6 5 5 6 6 7 7 7 7 8 8 9 9 9 9 9 9 9 9 9 12 18 19 19 19 17 15 11 9 10 9 10 11 12 12 11 12 12 12 12 11 11 10 10 10 9
8 9 8 9 8 7 7 7 7 6 6 6 6 6 6 6 7 7 7 7 7 6 6 6 6 7 7 6 6 6 7 7 6 7 7 7 7 6 5 5 6 6 6 6 6 6 7 7 7 7 8 8 9 9 9 9 8 10 14 19 19 19 19 16 13 16 16 11 9 10 10 11 12 12 11 10 11 11 11 11 11 10 9 9 8
Wind_Direction
184 191 184 188 174 175 174 169 172 168 164 166 164 171 169 164 162 161 141 153 148 145 147 154 155 153 153 160 163 168 166 191 201 184 199 237 248 239 247 229 245 271 299 308 313 309 305 298 295 297 310 309 311 312 313 314 316 312 309 299 285 271 247 229 235 249 263 204 236 234 241 196 235 212 207 211 200 187 193 203 163 176 187 187 183
193 191 189 184 181 179 171 167 165 163 162 166 164 168 169 164 160 144 156 174 153 153 151 152 145 150 155 166 165 172 186 205 2 26 326 299 288 262 243 242 246 263 269 284 290 289 290 296 296 298 296 294 301 305 307 310 311 312 308 309 301 290 266 254 239 235 256 248 246 240 225 192 230 213 201 206 227 203 209 192 184 182 188 192 181
192 187 184 185 187 175 162 164 162 162 159 164 164 165 165 161 156 153 161 167 160 144 152 153 157 143 143 151 152 118 94 118 171 156 193 215 239 266 264 262 262 270 269 266 271 279 287 284 289 295 296 293 291 293 304 302 304 300 299 301 300 294 281 254 266 262 256 257 220 237 218 215 213 222 205 210 216 207 209 202 193 187 189 187 191
183 180 183 186 179 166 168 162 161 162 163 164 164 164 161 161 160 155 163 153 155 156 144 152 135 132 120 105 113 138 140 134 142 173 197 216 240 251 259 264 269 272 275 275 273 274 276 284 285 290 295 293 292 291 292 297 300 300 299 300 298 298 294 284 261 265 275 278 228 222 219 214 246 236 157 142 167 198 239 288 117 198 190 187 192
174 177 177 175 173 174 170 164 167 168 164 162 163 163 162 158 161 157 149 154 156 136 109 108 107 116 129 137 139 138 162 177 183 223 235 235 239 252 257 258 260 268 271 279 282 281 278 279 284 284 285 287 289 289 286 290 295 299 297 297 296 298 300 295 279 259 263 267 273 256 235 216 220 205 170 172 151 117 89 165 195 198 203 204 195
221 172 170 171 177 177 170 166 171 170 163 162 163 164 159 154 159 154 151 152 130 113 118 114 122 129 130 138 152 174 195 204 223 259 270 278 280 278 277 274 269 261 265 271 274 272 275 277 281 282 280 280 283 286 289 284 286 285 289 291 294 295 298 310 304 274 251 254 261 266 255 243 229 208 191 186 170 157 124 114 113 179 174 172 148
279 266 170 168 170 177 171 171 162 163 162 162 156 152 154 152 147 153 152 135 123 116 119 119 128 131 155 158 160 165 153 113 20 311 294 287 284 284 285 279 273 271 271 270 265 263 262 264 268 271 274 277 280 283 285 284 276 275 279 288 292 299 302 301 308 310 296 276 268 257 255 240 235 227 208 190 190 196 183 174 211 201 102 168 183
166 192 186 171 179 178 170 157 156 156 154 151 154 155 145 141 146 129 116 113 120 129 138 129 148 138 148 137 149 121 102 73 320 294 288 296 302 301 296 295 297 299 299 292 288 281 275 270 265 264 262 263 265 269 272 277 279 277 275 280 288 293 293 296 298 298 300 301 286 280 259 240 259 309 96 125 176 266 231 195 206 187 207 203 194
148 162 168 161 138 115 107 126 129 135 144 146 146 147 146 140 125 117 110 114 121 136 147 147 141 103 72 94 97 136 127 243 239 256 294 302 302 297 296 295 295 295 293 289 287 288 288 288 287 281 277 276 272 269 268 268 274 279 275 271 277 281 283 287 288 285 289 291 294 296 294 269 243 226 187 185 195 215 209 184 221 208 181 152 175
155 152 154 147 124 128 143 144 142 140 144 154 152 145 141 138 129 119 120 127 136 151 145 118 97 94 80 24 40 60 236 235 243 250 258 270 278 281 283 285 284 284 287 289 286 282 280 280 279 281 281 278 275 275 276 275 269 266 273 275 271 273 275 279 279 280 276 275 278 292 291 292 275 230 210 214 215 184 99 170 211 158 120 158 310
162 160 162 152 138 137 142 150 147 155 162 148 143 141 146 141 125 121 126 136 157 170 106 75 95 125 137 153 263 269 273 269 274 276 278 276 278 277 274 277 276 276 276 278 282 280 277 274 275 279 281 283 282 273 264 264 265 261 259 258 257 258 269 267 264 265 269 263 261 262 271 279 281 254 235 233 211 192 195 192 188 138 173 176 214
173 169 163 158 156 153 154 156 153 162 153 156 156 157 148 131 129 131 134 149 170 99 90 115 103 103 128 334 274 276 281 285 286 285 282 280 277 275 274 275 276 274 273 275 276 277 277 276 273 274 275 279 284 288 286 279 269 262 258 255 255 255 249 249 264 270 261 270 265 251 250 259 273 259 238 228 218 213 224 188 176 181 187 204 213
172 166 163 160 136 125 127 139 157 158 162 159 159 154 143 126 124 137 167 184 122 90 97 90 86 357 336 294 312 307 302 293 292 290 289 286 283 279 274 271 272 273 272 271 274 276 277 277 276 270 272 274 278 278 279 281 280 274 263 261 260 254 254 253 244 246 264 265 266 268 247 246 254 254 220 228 211 210 197 197 193 204 210 211 216
167 164 160 156 153 151 152 155 157 160 160 158 156 151 143 163 165 164 144 111 91 100 103 96 193 335 339 338 312 306 296 296 297 298 296 290 284 277 265 266 266 268 269 269 271 273 272 273 274 274 268 269 269 274 275 278 281 283 280 270 260 255 251 246 249 251 247 249 254 258 258 231 245 246 233 219 206 209 194 213 199 205 213 221 336
161 161 163 162 159 157 158 155 152 153 154 156 156 160 167 152 161 158 136 137 133 142 157 128 60 27 325 312 310 303 297 298 301 299 299 295 291 286 276 269 267 267 265 266 265 267 267 266 267 271 273 271 267 268 273 275 277 274 273 273 274 272 261 253 249 251 242 222 237 252 266 262 259 252 240 213 210 215 203 209 201 197 161 86 63
199 155 153 158 160 160 156 145 146 148 149 153 158 165 160 163 142 135 120 117 129 128 119 113 163 229 262 292 316 303 292 290 292 295 298 299 297 296 289 282 278 273 270 266 263 261 262 264 268 270 272 273 272 269 270 274 275 274 271 267 266 264 265 262 262 259 260 263 252 248 254 260 263 265 255 238 221 210 193 67 93 127 153 187 206
198 174 124 109 148 159 138 136 141 144 146 154 164 161 149 126 135 132 125 136 136 138 163 195 192 185 241 278 289 290 295 297 303 303 303 303 307 301 297 291 284 281 275 271 265 265 265 266 265 268 267 267 269 269 269 269 270 269 268 267 263 259 256 253 248 250 253 260 265 262 262 263 261 259 256 246 233 200 167 173 191 161 174 204 208
177 171 169 165 168 160 145 134 143 142 145 156 164 150 133 141 153 158 139 154 165 180 187 187 197 180 195 260 282 301 301 302 302 300 299 303 305 304 300 295 290 285 283 275 272 269 268 271 271 271 271 269 267 262 263 267 270 268 268 268 266 260 258 254 255 249 246 252 259 263 262 261 255 251 252 248 234 208 188 205 195 171 203 200 208
173 189 174 167 163 146 141 146 150 145 154 150 138 138 150 155 156 148 154 158 170 180 181 165 199 221 211 248 296 299 297 297 297 295 297 301 306 303 301 297 294 291 288 283 274 274 272 271 269 270 270 270 268 265 261 258 262 263 266 266 262 260 257 251 251 253 247 247 253 259 258 252 251 242 250 248 235 218 211 211 188 191 205 205 209
167 163 139 124 125 133 141 139 140 139 140 139 136 137 137 128 152 169 166 163 165 183 179 173 189 227 233 304 304 294 293 290 289 290 295 297 299 300 297 298 296 296 292 290 289 280 275 274 267 263 263 265 264 263 261 257 259 261 257 256 261 263 266 256 250 248 248 243 250 252 258 262 271 269 256 250 238 222 220 213 202 197 204 208 201
148 144 144 150 158 135 135 141 140 137 136 138 141 150 155 163 172 169 174 174 161 175 184 170 205 244 291 289 288 282 274 281 286 290 292 294 293 296 295 292 294 293 292 288 282 282 277 272 269 264 263 265 264 264 261 258 255 259 255 254 250 263 267 260 258 249 252 252 251 254 261 265 268 269 266 249 232 224 224 223 211 200 202 207 202
147 145 149 157 139 140 149 142 135 137 136 127 128 168 191 169 176 182 167 167 181 185 125 150 224 294 297 284 270 272 271 268 283 285 285 288 288 288 290 288 289 291 286 282 278 276 270 267 264 260 260 261 262 261 260 258 256 257 255 256 258 256 255 257 259 257 257 260 259 260 261 263 268 269 265 255 234 224 224 222 221 210 209 208 200
148 145 151 142 140 144 141 131 129 127 135 153 163 191 185 170 185 157 161 169 167 150 154 195 224 287 284 282 276 273 274 273 274 279 282 282 283 283 280 282 283 284 283 282 279 276 270 268 269 267 260 259 259 259 258 257 257 255 257 257 255 254 253 251 251 250 248 249 249 250 251 251 256 260 262 263 249 229 228 223 220 216 216 220 219
117 117 123 142 144 132 132 134 138 147 158 168 170 161 163 186 172 176 167 156 147 158 218 210 243 259 270 281 281 274 273 271 270 272 278 279 279 279 279 278 278 278 278 278 277 273 267 259 262 263 263 262 261 260 258 255 253 253 251 251 251 250 248 247 242 242 243 244 241 243 245 246 251 256 259 263 263 248 233 227 225 222 194 122 62
124 131 136 141 128 133 133 140 149 149 163 156 159 158 175 155 161 133 127 135 159 190 226 212 230 250 265 268 272 277 277 273 273 272 274 276 277 278 280 281 281 280 280 279 278 277 275 273 270 268 266 264 262 261 259 256 252 252 250 249 250 248 244 239 240 236 237 236 238 242 244 244 246 254 261 260 266 277 242 130 105 104 102 93 77
128 134 136 144 137 139 138 153 163 163 171 165 158 171 162 163 179 161 155 175 186 195 230 225 240 245 253 260 270 279 285 285 280 278 277 283 284 284 284 285 284 282 278 275 275 274 273 272 270 268 265 263 261 256 252 248 245 243 243 243 244 244 241 239 232 232 235 237 237 238 240 241 245 247 241 220 213 216 191 173 147 138 135 128 102
137 138 140 145 143 145 150 156 164 163 151 165 128 109 127 152 163 167 180 183 199 221 228 232 241 245 253 262 274 286 290 289 286 288 287 291 294 293 291 287 283 280 277 276 275 276 274 272 269 264 260 258 255 253 251 247 244 241 238 237 235 234 236 235 235 234 234 234 236 235 232 233 238 224 203 198 205 202 189 175 161 159 144 135 122
128 133 138 139 145 145 141 153 149 142 131 126 101 81 94 145 157 176 181 195 206 229 230 234 233 236 248 263 281 293 290 288 296 306 308 303 299 295 287 281 280 282 284 282 282 282 282 279 273 268 266 262 257 249 245 241 237 236 232 229 228 228 230 232 233 234 233 232 234 226 223 218 220 219 210 201 201 187 181 173 163 154 147 130 111
129 127 129 130 143 140 132 151 145 116 90 81 123 164 164 171 190 224 230 194 194 206 220 228 227 223 227 252 275 287 286 294 302 307 304 302 300 302 300 296 298 296 291 291 292 288 280 275 272 269 261 258 257 251 245 237 231 227 227 226 224 222 222 218 222 224 223 224 225 219 222 211 220 202 197 194 187 181 181 169 165 150 155 145 144
124 129 130 134 140 124 132 120 90 100 110 121 136 111 10 172 195 181 222 228 225 224 196 214 208 199 215 249 232 256 277 284 294 304 305 304 302 299 298 298 299 299 298 297 295 291 285 279 273 271 271 267 261 255 246 232 228 222 221 219 219 220 219 217 216 217 213 215 218 218 219 209 211 195 185 184 176 178 185 173 163 158 150 143 132
132 134 136 145 141 125 94 90 110 117 132 137 129 108 29 28 226 245 248 258 229 226 228 230 215 208 209 262 273 265 269 280 293 305 307 306 306 307 308 308 307 306 305 307 305 293 293 291 292 287 281 274 265 259 247 237 228 224 222 215 213 217 219 219 215 212 211 209 213 214 208 199 200 184 179 174 173 171 170 180 158 161 152 144 135
136 144 132 118 103 102 115 122 125 126 116 96 111 117 119 140 283 277 272 261 256 250 247 247 247 252 257 256 267 285 287 294 306 310 310 313 314 314 314 314 312 309 307 307 300 300 301 302 303 302 301 292 275 259 249 239 233 223 223 218 216 212 212 215 211 203 201 200 199 197 193 195 190 182 176 171 166 165 161 155 162 149 126 126 135
126 109 104 106 108 110 116 123 121 126 131 122 123 124 147 174 215 285 312 312 292 263 255 252 256 257 260 269 279 281 293 306 309 311 315 318 318 319 319 316 312 308 309 313 317 312 315 313 312 311 307 303 298 280 253 239 233 229 220 220 219 215 213 218 209 207 204 202 196 195 192 192 183 176 173 165 163 165 167 163 156 141 134 126 128
108 114 118 117 114 119 119 125 133 140 131 128 136 155 182 188 190 221 264 308 332 344 329 271 259 256 261 272 284 303 310 311 313 315 319 321 322 323 325 317 307 305 303 307 318 320 319 318 318 316 313 307 308 306 288 250 232 227 223 219 222 214 215 210 200 207 208 204 199 196 189 186 176 169 166 167 169 161 163 162 151 145 144 142 140
116 117 117 117 125 130 128 127 131 127 129 135 146 159 196 210 200 211 233 259 286 284 291 309 297 249 240 278 305 310 315 318 318 320 321 324 326 328 325 325 334 340 337 334 326 326 324 322 321 320 318 318 314 311 306 298 269 243 229 227 224 223 220 208 209 207 205 200 195 190 183 176 173 166 160 159 156 157 159 154 156 146 140 135 134
114 113 112 118 112 112 120 130 132 135 141 158 166 181 196 205 210 231 247 257 256 280 296 278 276 292 283 285 314 324 320 319 320 322 321 326 331 334 336 338 334 335 331 330 330 326 323 320 320 318 319 317 316 312 310 311 314 304 278 196 196 203 209 205 200 195 190 183 178 168 163 165 164 162 159 160 164 162 160 160 155 152 144 143 142
112 112 116 109 110 122 131 130 126 136 147 160 171 193 218 230 244 266 285 315 309 282 250 289 317 321 332 353 340 322 319 319 323 325 328 333 335 339 336 331 330 327 331 332 332 330 329 328 322 318 320 320 318 315 315 317 320 329 344 8 185 134 135 146 141 145 147 150 150 153 158 157 155 157 156 153 144 137 136 134 134 137 139 137 134
120 120 122 123 121 126 119 119 124 136 146 169 188 193 221 235 241 260 320 339 310 294 306 311 297 314 346 329 330 330 318 323 333 341 342 345 350 348 344 336 333 332 332 332 333 331 327 323 324 321 321 321 321 323 324 325 324 330 345 8 44 74 97 94 91 94 97 111 127 135 136 138 143 141 141 142 143 142 139 138 133 127 125 130 133
108 123 128 139 142 130 129 122 124 114 146 173 200 198 252 296 314 345 1 358 330 320 300 294 304 351 348 324 335 327 327 343 351 347 344 346 346 345 342 340 337 336 336 335 334 334 329 327 327 326 324 326 327 328 331 332 334 340 345 20 58 67 75 87 94 97 102 105 103 112 121 127 132 135 138 136 136 137 135 134 134 134 136 136 134
122 132 139 134 120 128 118 131 147 134 169 183 195 159 321 313 325 344 329 15 330 316 311 326 338 5 337 358 339 336 344 344 344 342 341 345 346 346 345 341 342 338 338 336 337 336 333 332 331 333 332 332 336 335 340 344 348 345 354 19 42 61 66 83 96 103 108 108 108 112 118 121 122 121 121 127 132 133 133 132 132 130 128 124 121
110 117 119 137 143 129 111 123 162 186 217 34 44 47 1 288 289 276 24 72 283 328 331 337 336 323 358 352 341 345 346 339 337 341 344 343 344 345 345 343 340 340 339 341 339 339 338 336 339 339 342 342 340 346 349 357 358 1 13 22 47 60 61 66 85 101 106 110 114 113 114 119 126 129 127 124 119 117 116 118 117 116 114 117 122
120 128 140 153 130 111 131 145 45 38 44 50 45 48 49 38 19 13 30 30 347 41 13 11 9 265 340 360 347 345 350 342 340 343 344 347 345 347 343 343 342 341 343 342 343 341 341 344 346 349 352 354 353 355 1 7 5 8 12 25 41 62 69 64 70 90 105 109 111 116 118 115 114 111 116 120 119 117 118 118 119 120 120 118 117
76 65 60 64 60 50 43 50 70 72 56 52 44 36 39 42 37 32 36 16 359 42 44 31 23 25 346 345 346 341 351 348 347 345 343 343 344 346 348 347 345 346 347 347 347 347 346 348 352 356 359 2 3 6 8 7 4 15 18 27 43 52 64 70 75 78 88 99 102 104 107 110 110 112 112 109 111 113 117 121 122 121 120 118 117
71 70 69 68 69 65 54 57 62 63 64 58 55 45 33 34 32 32 34 23 5 2 16 21 46 47 1 348 358 358 355 345 347 346 344 341 347 351 349 346 345 349 352 353 354 352 353 354 358 2 6 8 10 15 15 14 15 20 21 28 43 49 55 62 71 80 95 104 107 107 106 107 109 111 114 118 122 122 122 121 120 120 120 117 115
70 72 72 70 64 67 59 51 56 62 64 57 48 38 30 31 31 26 35 39 34 28 21 14 17 27 12 0 359 353 346 344 343 346 345 345 346 352 348 347 349 353 356 358 357 359 357 360 1 8 12 11 14 18 20 21 24 27 24 31 39 46 42 49 60 74 87 97 101 105 107 109 110 111 112 114 117 118 119 121 120 117 113 114 115
69 69 67 68 65 59 59 54 53 56 57 56 51 41 28 27 27 27 29 36 37 38 28 20 18 19 13 3 353 350 344 343 343 345 343 343 345 348 351 350 351 355 359 0 1 3 3 2 8 11 16 17 17 19 23 26 29 30 31 32 40 43 40 42 50 68 76 87 98 101 104 101 101 103 105 108 108 107 110 110 108 105 106 109 113
59 59 59 60 62 61 54 49 51 51 54 53 49 44 35 30 26 25 31 29 29 30 30 22 21 17 15 16 8 360 347 340 333 345 346 342 344 343 352 357 355 356 359 2 6 8 6 9 10 14 18 21 23 24 27 30 33 34 34 34 36 43 42 47 49 57 64 73 86 98 98 102 100 100 98 100 100 101 100 100 102 105 106 109 109
58 56 57 59 61 61 55 51 53 52 51 49 45 40 36 30 29 30 29 25 23 19 18 16 19 13 14 12 7 3 358 357 348 337 343 353 350 347 350 357 1 355 355 3 6 7 9 13 12 16 17 20 25 29 30 34 36 38 40 40 43 50 52 55 57 57 61 72 78 87 92 92 92 92 94 96 98 98 98 99 100 99 103 104 104
56 58 60 60 63 58 54 52 52 52 49 45 43 41 35 31 31 28 28 24 22 16 10 8 4 8 12 11 4 2 0 1 1 358 347 343 357 357 348 347 1 3 0 5 3 5 7 11 15 19 20 23 24 30 35 36 40 41 45 46 54 56 56 56 59 61 68 73 76 80 84 88 88 88 86 87 86 88 92 93 95 98 98 97 99
53 52 57 56 58 53 51 53 54 53 50 49 49 48 38 35 32 28 25 23 18 19 10 1 359 360 2 6 6 3 2 2 359 355 354 348 349 356 358 347 350 2 7 8 8 9 9 14 17 21 24 27 29 31 35 38 40 47 50 55 57 58 59 58 56 56 60 65 68 76 79 84 84 84 83 87 89 91 91 93 95 97 99 102 102
54 55 57 57 56 52 51 52 51 50 51 52 51 47 45 42 38 29 25 22 19 13 10 2 356 1 4 3 2 359 0 359 356 356 356 354 351 345 356 356 349 351 4 15 16 14 17 19 22 25 29 32 33 34 35 38 41 49 57 59 59 60 59 60 61 60 61 63 68 70 78 83 89 90 90 90 93 92 97 99 100 101 104 105 106